COSMOS 2251 DEB

Satellite information

Favourite Embed

Satellite Type and Status

DEBRISIN ORBIT

Key statistics

Satellite COSMOS 2251 DEB at a glance.

Uptime

11821

Days in orbit

Revolutions

≈ 14.6

Per day

Orbit

LEO

Low Earth Orbit

Inclination

74.1

Latest

Satellite identification and parameters

Extended collection of information and parameters for COSMOS 2251 DEB.

Object identification

Identified? True

Debris? True

Object name: COSMOS 2251 DEB

International designator: 1993-036ZU

Object number (NORAD): 34750

Object ID (CCSDS): 34750

Country: COMMONWEALTH OF INDEPENDENT STATES (CIS)

Current information (Y/N): Y

RCS size: SMALL

Orbital parameters

Period: 98.593 minutes

Inclination: 74.1082 deg

SMA: 7069.539 km

Apoapsis: 720.76 km

Periapsis: 662.048 km

RAAN: 290.7313 deg

Eccentricy: 0.00415249

Argument of periapsis: 257.7045 deg

Mean anomaly: 132.8657 deg

Mean motion: 14.60549037 rev/day

Mean motion (dot): 0.00007366 rev/day2

B* drag term: 0.0015028161 1/REarth

Two-line elements (TLE)

Creation date: Oct. 27, 2025, 2:46 a.m.

Reference frame: TEME

Reference center: EARTH

Epoch: Oct. 26, 2025, 11:23 p.m. UTC

TLE line 0: 0 COSMOS 2251 DEB

TLE line 1: 1 34750U 93036ZU 25299.97484659 .00007366 00000-0 15028-2 0 9999

TLE line 2: 2 34750 74.1082 290.7313 0041525 257.7045 132.8657 14.60549037875488

Live tracking on map

Real-time ground track for satellite COSMOS 2251 DEB.

In-orbit conjunctions

A list of the most updated potential collisions computed for object COSMOS 2251 DEB.

Target Orbit TCA Probability of collision Miss distance Type
CZ-6A DEB LEO 2024-11-13 01:42:08 0.0001638336 317.0 (m) DEBRIS
FENGYUN 1C DEB SSO 2024-11-12 22:32:36 0.000135408 929.0 (m) DEBRIS
TRIAD 1 SSO 2024-09-21 01:02:12 0.0002744434 567.0 (m) PAYLOAD

Associated space launch

Military communications satellite. Destroyed in a collision with Iridium 33.

COSMOS 2251 DEB was lifted into orbit during the mission ‘Kosmos-3M | Strela-2M 51’, on board a Kosmos-3M space rocket.

The launch took place on June 16, 1993, 4:17 a.m. from 132/1 (132L).

For more information about the launch, click the button.

Launch to space Kosmos-3M | Strela-2M 51
Kosmos-3M | Strela-2M 51

Agency: N/A

Status: Launch Successful

Launch date: June 16, 1993, 4:17 a.m. UTC

Rocket: Kosmos-3M

Launch pad: 132/1 (132L)

Location: Plesetsk Cosmodrome, Russian Federation

...

Latest news about this satellite

There are no fresh news available about this satellite. Check back as we update our databases every day.


Newsletter sign-up

Weekly statistics, charts and insights to help you stay on top of the space industry.